Location: ??????
(55.7522°N, 37.6156°E)
Time: 17:39:37
(UTC+00:00)

Cosmos 1455 Rocket - Pass Details

Date: 14 June 2025
Orbit: 598 x 624 km, 82.5° (Epoch: 12 July)

Event Time Altitude Azimuth Distance (km) Brightness Sun altitude
Rises 23:35:56 0° 346° (NNW) 2,896 7.3 -6.5°
Reaches altitude 10° 23:38:11 10° 344° (NNW) 1,982 6.4 -6.4°
Maximum altitude 23:42:32 67° 262° (W) 663 3.1 -6.1°
Drops below altitude 10° 23:46:49 10° 180° (S) 1,950 5.1 -5.8°
Enters shadow 23:48:29 - 178° (S) 2,626 5.8 -5.6°
